Location: *
(45.4590°N, 16.3650°E)
Time: 15:58:40
(UTC+00:00)

Cosmos 2297 Rocket - Pass Details

Date: 17 January 2020
Orbit: 838 x 845 km, 71.0° (Epoch: 19 February)

Event Time Altitude Azimuth Distance (km) Brightness Sun altitude
Rises 19:24:40 0° 235° (SW) 3,384 5.9 -39.0°
Reaches altitude 10° 19:27:22 10° 245° (WSW) 2,455 5.1 -39.4°
Enters shadow 19:30:07 24° 268° (W) 1,683 4.2 -39.9°
